Location: Napa Junction
(38.1874°N, 122.2508°W)
Time: 15:25:44
(UTC+00:00)

Cosmos 1339 Rocket - Pass Details

Date: 08 September 2024
Orbit: 942 x 1005 km, 82.9° (Epoch: 08 October)

Event Time Altitude Azimuth Distance (km) Brightness Sun altitude
Exits shadow 12:11:12 - 186° (S) 3,307 7.0 -18.6°
Reaches altitude 10° 12:12:54 10° 186° (S) 2,659 6.5 -18.3°
Maximum altitude 12:18:59 87° 276° (W) 949 4.4 -17.2°
Drops below altitude 10° 12:25:05 10° 6° (N) 2,666 7.1 -16.1°
Sets 12:27:34 0° 7° (N) 3,617 7.9 -15.6°
